Location: Valley of Enchantment
(34.2467°N, 117.3048°W)
Time: 05:57:31
(UTC+00:00)

Cosmos 1758 Rocket - Pass Details

Date: 10 September 2024
Orbit: 597 x 632 km, 82.5° (Epoch: 09 October)

Event Time Altitude Azimuth Distance (km) Brightness Sun altitude
Rises 12:19:00 0° 341° (NNW) 2,898 7.0 -15.1°
Reaches altitude 10° 12:21:26 10° 331° (NNW) 1,982 6.0 -14.6°
Maximum altitude 12:25:17 31° 270° (W) 1,087 4.3 -13.8°
Drops below altitude 10° 12:29:04 10° 208° (SSW) 1,950 5.7 -13.1°
Enters shadow 12:30:24 - 201° (SSW) 2,438 6.3 -12.8°
